Weather History for KOLF - October, 2012

Change the Weather History Date:

Tuesday, October 16, 2012

  Actual Average Record
Temperature  
Mean Temperature 48 °F -  
Max Temperature 61 °F 58 °F 69 °F (2005)
Min Temperature 35 °F 30 °F 18 °F (2001)
Degree Days  
Heating Degree Days 17    
Cooling Degree Days 0    
Moisture  
Dew Point 42 °F    
Average Humidity 82    
Maximum Humidity 93    
Minimum Humidity 54    
Precipitation  
Precipitation 0.21 in 0.04 in 0.45 in (1998)
Month to date precipitation 0.22 0.45  
Year to date precipitation 9.36 11.13  
Sea Level Pressure  
Sea Level Pressure 29.41 in    
Wind  
Wind Speed 8 mph (WSW)    
Max Wind Speed 29 mph    
Max Gust Speed 43 mph    
Visibility 10 miles    
Events Rain    
T = Trace of Precipitation, MM = Missing Value Source: NWS Daily Summary

Daily Weather History Graph

Daily Weather History Graph

Search for Another Location

Airport or City:

Trip Planner

Search our weather history database for the weather conditions in past years. The results will help you decide how hot, cold, wet, or windy it might be!

Date:

Astronomy

Oct. 16, 2012 Rise Set
Actual Time 7:24 AM MDT 6:10 PM MDT
Civil Twilight 6:52 AM MDT 6:42 PM MDT
Nautical Twilight 6:16 AM MDT 7:18 PM MDT
Astronomical Twilight 5:40 AM MDT 7:53 PM MDT
Moon 9:00 AM MDT (10/16) 6:45 PM MDT (10/16)
Length of Visible Light 11h 49m
Length of Day
10h 46m
New Moon, 2% of the Moon is Illuminated
Oct 16
New Moon
Oct 21
First Quarter
Oct 29
Full
Nov 6
Last Quarter
Nov 13
New

Hourly Weather History & Observations

Time (MDT) Temp. Windchill Dew Point Humidity Pressure Visibility Wind Dir Wind Speed Gust Speed Precip Events Conditions
12:53 AM 43.0 °F 39.5 °F 37.9 °F 82% 29.67 in 10.0 mi WSW 5.8 mph - N/A   Clear
1:53 AM 45.0 °F 43.5 °F 39.0 °F 80% 29.65 in 10.0 mi SW 3.5 mph - N/A   Clear
2:53 AM 39.9 °F 36.7 °F 37.9 °F 93% 29.62 in 10.0 mi SW 4.6 mph - N/A   Clear
3:53 AM 37.4 °F - 35.6 °F 93% 29.57 in 10.0 mi Calm Calm - N/A   Clear
4:53 AM 39.0 °F - 37.0 °F 93% 29.57 in 10.0 mi Calm Calm - N/A   Clear
5:53 AM 37.4 °F - 35.6 °F 93% 29.53 in 10.0 mi Calm Calm - N/A   Clear
6:53 AM 37.9 °F 35.5 °F 36.0 °F 93% 29.50 in 10.0 mi NE 3.5 mph - N/A   Clear
7:53 AM 39.0 °F - 37.0 °F 93% 29.49 in 10.0 mi Calm Calm - N/A   Clear
8:53 AM 43.0 °F 41.3 °F 39.9 °F 89% 29.44 in 10.0 mi East 3.5 mph - N/A   Clear
9:53 AM 50.0 °F - 43.0 °F 77% 29.39 in 10.0 mi East 3.5 mph - N/A   Clear
10:53 AM 57.0 °F - 45.0 °F 64% 29.35 in 10.0 mi South 6.9 mph - N/A   Partly Cloudy
11:53 AM 61.0 °F - 44.1 °F 54% 29.32 in 10.0 mi SW 5.8 mph - N/A   Mostly Cloudy
12:53 PM 57.0 °F - 46.9 °F 69% 29.32 in 8.0 mi WSW 10.4 mph - 0.00 in Rain Light Rain
1:53 PM 55.0 °F - 51.1 °F 86% 29.32 in 9.0 mi West 19.6 mph 25.3 mph 0.01 in Rain Light Rain
2:53 PM 54.0 °F - 51.1 °F 90% 29.29 in 10.0 mi SW 8.1 mph - 0.06 in Rain Light Rain
3:53 PM 55.0 °F - 51.1 °F 86% 29.26 in 10.0 mi WSW 4.6 mph - 0.00 in   Partly Cloudy
4:53 PM 55.0 °F - 52.0 °F 89% 29.29 in 7.0 mi SW 11.5 mph - 0.00 in Rain Light Rain
5:53 PM 55.9 °F - 50.0 °F 80% 29.29 in 10.0 mi West 16.1 mph - 0.02 in   Overcast
6:53 PM 54.0 °F - 44.1 °F 69% 29.30 in 10.0 mi WSW 9.2 mph - N/A   Mostly Cloudy
7:53 PM 53.1 °F - 41.0 °F 64% 29.33 in 10.0 mi West 20.7 mph 27.6 mph N/A   Partly Cloudy
8:53 PM 50.0 °F - 39.0 °F 66% 29.36 in 10.0 mi West 25.3 mph 34.5 mph N/A   Scattered Clouds
9:53 PM 48.0 °F - 39.9 °F 74% 29.36 in 10.0 mi West 26.5 mph 36.8 mph N/A   Overcast
10:53 PM 46.9 °F - 41.0 °F 80% 29.34 in 10.0 mi West 28.8 mph 42.6 mph 0.00 in   Overcast
11:24 PM 44.6 °F 35.1 °F 42.8 °F 93% 29.33 in 7.0 mi West 27.6 mph 39.1 mph 0.01 in Rain Light Rain
11:53 PM 45.0 °F 36.2 °F 42.1 °F 90% 29.36 in 6.0 mi West 24.2 mph 34.5 mph 0.04 in Rain Light Rain